www.pogodaiklimat.ru

Погода и климат >> Архив погоды >> Россия >> Якутия >> Белая Гора


ПОГОДА в Белой Горе

  • Прогноз погоды в Белой Горе
  • Монитор погоды в Белой Горе

АРХИВ ПОГОДЫ в Белой Горе

Время (UTC), дата Ветер
(напр.,м/с)
 
Видим.   Явления Облачность Т
(С)
Тd
(С)
f
(%)
Тe
(С)
Тes
(С)
Комфортность P
(гПа)
Po
(гПа)
Тmin
(С)
Tmax
(С)
R
(мм)
R24
(мм)
S
(см)
06 13.06 штиль 0 50 км 8/8 1000 м
[Cu med, cong]
+28.8 +3.1 19 +27 +29 жарко 1003.0 998.3
09 13.06 Ю 2 50 км 6/5 1000 м
[Cu hum Ci]
+27.2 +5.0 24 +26 +27 жарко 1003.5 998.8 +28.9
12 13.06 штиль 0 50 км 8/0
[Cs]
+21.8 +9.4 45 +23 +23 комфорт 1004.2 999.4
15 13.06 Ю 1 50 км 8/0
[Cs]
+18.1 +8.4 53 +19 +19 1004.7 999.9
18 13.06 С 4 50 км 6/6 1000 м
[Cb cap]
+20.5 +7.5 43 +22 +22 комфорт 1006.4 1001.6
21 13.06 СВ 3 50 км 6/6 600 м
[Cb cap]
+15.9 +9.1 64 +15 +17 1008.7 1003.8 +15.8
00 14.06 С 4 50 км 8/8 600 м
[Cb cap]
+15.2 +7.3 59 +14 +16 1009.9 1005.0
03 14.06 СЗ 3 50 км 6/6 1000 м
[Cb cap]
+15.4 +8.1 62 +15 +18 1010.6 1005.7
06 14.06 С 3 50 км 5/0
[Cs]
+18.0 +7.6 51 +18 +23 1010.6 1005.7
09 14.06 С 4 50 км 4/0
[Cs]
+16.3 +7.8 57 +16 +17 1011.6 1006.7 +18.1
12 14.06 СВ 3 50 км 6/0
[Cs]
+12.8 +6.8 67 +12 +12 1012.5 1007.5
15 14.06 С 2 50 км 8/0
[Cs]
+10.4 +7.3 81 +9 +9 1013.3 1008.3
18 14.06 С 3 50 км ясно +10.6 +6.8 77 +9 +9 1015.8 1008.8
21 14.06 СВ 1 50 км 4/4 180 м
[]
+13.7 +8.1 69 +14 +17 1014.5 1009.5 +10.3
00 15.06 З 1 50 км 4/0
[Cs]
+16.4 +8.1 58 +17 +27 1014.4 1009.5
03 15.06 СЗ 2 50 км ясно +19.8 +9.7 52 +22 +32 комфорт 1013.4 1008.6
06 15.06 С 2 50 км ясно +21.0 +8.9 46 +23 +30 комфорт 1012.6 1007.8
09 15.06 Ю 2 50 км ясно +22.5 +8.6 41 +24 +26 комфорт 1012.7 1007.9 +22.6
12 15.06 ЮВ 1 50 км 5/0
[Ci]
+20.2 +10.2 53 +23 +23 комфорт 1012.9 1008.1
15 15.06 штиль 0 50 км 6/0
[Cs]
+13.7 +11.8 88 +13 +13 1013.0 1008.1
18 15.06 В 1 50 км 6/0
[Cs]
+14.8 +12.0 83 +15 +16 1013.4 1008.5
21 15.06 СВ 2 50 км 4/0
[Cs]
+20.0 +13.5 66 +23 +26 комфорт 1013.3 1008.5 +13.6
00 16.06 В 2 50 км 4/0
[Cs]
+25.2 +8.7 35 +26 +34 жарко 1012.9 1008.1
03 16.06 С 2 50 км 3/0
[Cs]
+26.3 +8.6 33 +27 +37 жарко 1012.0 1007.3
06 16.06 СЗ 1 50 км 4/4 1000 м
[Cu hum]
+27.1 +5.1 24 +26 +31 жарко 1011.1 1006.4
09 16.06 В 2 50 км 5/5 1000 м
[Cu hum]
+26.3 +6.1 28 +26 +27 жарко 1010.9 1006.2 +27.2
12 16.06 Ю 2 50 км 4/4 1000 м
[Cu hum]
+22.4 +9.7 44 +24 +24 комфорт 1011.1 1006.3
15 16.06 СВ 1 50 км 4/4 1000 м
[Cu hum]
+15.0 +12.2 83 +16 +16 1011.1 1006.2
18 16.06 С 2 50 км ясно +18.1 +12.7 71 +19 +20 1011.3 1006.4
21 16.06 ЮЗ 2 50 км ясно +22.6 +10.9 48 +25 +29 комфорт 1011.5 1006.7 +14.9
00 17.06 З 2 50 км 3/3 600 м
[Cb cap]
+25.2 +9.0 36 +26 +32 жарко 1011.3 1006.6
03 17.06 В 2 50 км ливневой дождь, в посл. час гроза 6/6 600 м
[Cb calv]
+25.8 +7.3 31 +26 +30 жарко 1010.3 1005.6
06 17.06 СЗ 6 50 км {гроза} 8/8 600 м
[Cb calv]
+21.4 +9.5 47 +23 +23 комфорт 1011.2 1006.5
09 17.06 СВ 3 50 км 8/8 600 м
[Cb cap]
+20.3 +10.6 54 +22 +23 комфорт 1012.9 1008.1 +25.9
12 17.06 С 3 50 км 6/6 600 м
[Cb cap]
+15.6 +10.7 73 +15 +15 1014.0 1009.1
15 17.06 СВ 4 50 км 6/6 600 м
[Cb cap]
+11.2 +9.2 87 +9 +9 1015.3 1010.3
18 17.06 С 4 50 км 8/4 200 м
[St As trans]
+10.0 +9.0 93 +7 +7 1016.1 1011.1
21 17.06 С 4 50 км 10/8 200 м
[St As trans]
+9.4 +8.0 91 +6 +7 1016.8 1011.8 +9.3
00 18.06 С 3 50 км 9/9 600 м
[Sc]
+11.5 +7.8 78 +10 +11 1017.5 1012.5
03 18.06 СВ 3 50 км 6/6 600 м
[Sc]
+14.7 +7.6 62 +14 +18 1017.4 1012.4
06 18.06 СВ 3 50 км 5/5 1000 м
[Cu hum]
+14.8 +7.5 62 +14 +17 1017.2 1012.3
09 18.06 СВ 3 50 км ясно +14.0 +8.0 67 +13 +15 1017.2 1012.2 +14.9
12 18.06 С 3 50 км ясно +13.6 +8.4 71 +13 +13 1017.3 1012.3
15 18.06 С 3 50 км ясно +11.0 +8.4 84 +9 +9 1017.3 1012.3
18 18.06 СВ 2 50 км ясно +10.8 +8.4 85 +9 +10 1017.2 1012.2
21 18.06 СВ 1 50 км ясно +14.2 +9.3 72 +15 +20 1017.2 1012.2 +10.8
00 19.06 ЮВ 2 50 км ясно +19.1 +10.1 56 +20 +30 1016.5 1011.6
03 19.06 СВ 1 50 км ясно +22.8 +8.2 39 +24 +37 комфорт 1015.4 1010.6
06 19.06 В 3 50 км ясно +24.1 +7.3 34 +24 +30 комфорт 1014.2 1009.4
09 19.06 В 5 50 км ясно +23.3 +5.1 31 +23 +25 комфорт 1013.8 1009.0 +24.2
12 19.06 В 2 50 км ясно +20.0 +8.5 47 +22 +22 комфорт 1014.1 1009.3
15 19.06 В 2 50 км ясно +15.0 +10.0 72 +15 +15 1014.4 1009.5
18 19.06 В 1 50 км ясно +15.2 +10.7 74 +16 +17 1014.5 1009.6
21 19.06 СВ 2 50 км ясно +17.4 +10.9 66 +18 +22 1014.4 1009.5 +14.9
00 20.06 СВ 3 50 км ясно +22.2 +10.8 48 +24 +32 комфорт 1014.4 1009.6

 

Местоположение метеостанции Белая Гора (Якутия, Россия): широта 68.55 долгота 146.20 высота над уровнем моря 41 м.

В архиве по умолчанию представлена погода в Белой Горе за последнюю неделю. Архивные данные за месяц целиком и за предыдущие месяцы, начиная с января 2011 года, Вы можете получить, выбрав интересующий диапазон дат из раскрывающегося списка и нажав кнопку "Ввод!".


*Определитесь, кто Вы:
робот инопланетянин человек

Внимание! Время в таблицах - всемирное. Для получения местного времени необходимо прибавить поправку, которая равна 11 ч.

Смотрите также архив погоды в соседних городах и на ближайших метеорологических станциях:

Погода в Чокурдахе (Якутия, Россия) (238 км)
Погода в Усть-Моме (Якутия, Россия) (266 км)
Погода в Депутатском (Якутия, Россия) (272 км)
Погода в Среднеколымске (Якутия, Россия) (335 км)
Погода в Андрюшкино (Якутия, Россия) (340 км)
Погода в Зырянке (Якутия, Россия) (373 км)
Погода в Усть-Куйге (Якутия, Россия) (447 км)
Погода в Усть-Чарках (Якутия, Россия) (449 км)
Погода в Юбилейной (Якутия, Россия) (458 км)
Погода в Усть-Нере (Якутия, Россия) (468 км)

Пояснения к столбцам:

Ветер - указаны скорость ветра в м/с - средняя за 10 мин, порывы в срок и между сроками (в фигурных скобках) и направление, откуда дует ветер: С - северный, СВ - северо-восточный, В - восточный, ЮВ - юго-восточный, Ю - южный, ЮЗ - юго-западный, З - западный, СЗ - северо-западный.
Видимость - горизонтальная дальность видимости в метрах или километрах. При видимости от 1 до 10 км при отсутствии осадков обычно наблюдается дымка, при ухудшении видимости до 1 км и менее - туман. В сухую погоду видимость может ухудшаться дымом, пылью или мглою.
Явления - указаны атмосферные явления, наблюдавшиеся в срок или в последний час перед сроком; фигурными скобками обозначены явления, наблюдавшиеся между сроками (за 1-3 часа до срока); квадратными скобками обозначены град или гололедные отложения с указанием их диаметра в мм.
Облачность - указаны через наклонную черту общая и нижняя облачность в баллах и высота нижней границы облаков в метрах; квадратными скобками обозначены формы облаков: Ci - перистые, Cs - перисто-слоистые, Cc - перисто-кучевые, Ac - высококучевые, As - высокослоистые, Sc - слоисто-кучевые, Ns - слоисто-дождевые, Cu - кучевые, Cb - кучево-дождевые. Подробнее классификацию облаков см. в Атласе облаков (PDF).
T - Температура воздуха - температура, измеренная на высоте 2 м над землей.
Td - Температура точки росы - температура, при понижении до которой содержащийся в воздухе водяной пар достигнет насыщения.
f - Относительная влажность воздуха - влажноcть воздуха, измеренная на высоте 2 м над землей.
Te - Эффективная температура - температура, которую ощущает одетый по сезону человек в тени. Характеристика душности погоды. При расчете учитывается влияние влажности воздуха и скорости ветра на теплоощущения человека.
Tes - Эффективная температура на солнце - температура, которую ощущает человек, с поправкой на солнечный нагрев. Характеристика знойности погоды. Зависит от высоты солнца над горизонтом, облачности и скорости ветра. Ночью, в пасмурную погоду, а также при ветре 12 м/с и более поправка равна нулю.
P - Атмосферное давление - приведенное к уровню моря атмосферное давление.
Po - Атмосферное давление - измеренное на уровне метеостанции атмосферное давление.
Tmin - Минимальная температура - минимум температуры воздуха на высоте 2 м над землей.
Tmax - Максимальная температура - максимум температуры воздуха на высоте 2 м над землей.
R - Количество осадков - Количество выпавших осадков за период времени, мм. При наведении курсора мыши на число - период времени, за который выпало указанное количество осадков.
R24 - Количество осадков - Количество выпавших осадков за 24 часа, мм.
S - Снежный покров - Высота снежного покрова, см. При наведении курсора мыши на число - состояние снежного покрова и степень покрытия местности в баллах.